Regional Weather Roundup
Issued by NWS

Home | Current Version | Previous Version | Text Only | Print | Product List | Glossary On
Versions: 1 2 3 4 5 6 7 8 9 10 11 12 13 14 15 16 17 18 19 20 21 22 23 24 25 26 27 28 29 30 31 32 33 34 35 36 37 38 39 40 41 42 43 44 45 46 47 48 49 50
000
ASUS43 KMKX 130321
RWRWI

WISCONSIN REGIONAL WEATHER ROUNDUP
NATIONAL WEATHER SERVICE MILWAUKEE/SULLIVAN WI
1000 PM CDT SAT JUL 12 2014

NOTE: "FAIR" INDICATES FEW OR NO CLOUDS BELOW 12,000 FEET WITH NO
SIGNIFICANT WEATHER AND/OR OBSTRUCTIONS TO VISIBILITY.

WIZ001-002-006>008-014>016-023>028-130400-
NORTHWEST WISCONSIN

CITY           SKY/WX    TMP DP  RH WIND       PRES   REMARKS
SUPERIOR ARPT  CLEAR     65  60  84 SW7       29.85R
ASHLAND        MOCLDY    66  60  81 SW7       29.86F
HAYWARD        MOCLDY    67  62  84 SW6       29.90S
SIREN          PTCLDY    65  62  90 SW6       29.91F
RICE LAKE      CLOUDY    66  65  94 SW5       29.94R FOG
LADYSMITH      CLOUDY    66  64  95 SW6       29.93R
EAU CLAIRE     CLEAR     65  64  97 SW7       29.91R
MENOMONIE      PTCLDY    66  64  95 W5        29.93R
NEW RICHMOND   CLOUDY    68  67  95 W6        29.95R
OSCEOLA        MOCLDY    67  65  92 SW5       29.96S
$$

WIZ003>005-009-010-017-018-130400-
NORTH CENTRAL WISCONSIN

CITY           SKY/WX    TMP DP  RH WIND       PRES   REMARKS
WOODRUFF       CLOUDY    64  62  91 W5        29.90S
RHINELANDER    MOCLDY    61  60  97 W6        29.90S
EAGLE RIVER    MOCLDY    62  62  99 W9        29.89R
LAND O LAKES   CLOUDY    66  63  90 W6        29.89S
PHILLIPS       CLOUDY    64  63  97 SW6       29.90R
TOMAHAWK       FOG       60  59  96 CALM      29.90R VSB 1
MEDFORD        MOCLDY    61  61  99 SW3       29.90S FOG
MERRILL        MOCLDY    62  62 100 CALM      29.89S
$$

WIZ029-030-035-036-043>047-130400-
CENTRAL WISCONSIN

CITY           SKY/WX    TMP DP  RH WIND       PRES   REMARKS
WAUSAU         CLOUDY    63  62  97 W5        29.88S
MOSINEE        CLEAR     63  63 100 NW5       29.90S
MARSHFIELD     MOCLDY    63  62  97 NW6       29.91R
STEVENS POINT  CLOUDY    64  62  94 NW3       29.89R
WAUPACA        CLOUDY    68  65  92 S8        29.85F
WAUTOMA        MOCLDY    66  65  97 CALM      29.88F
WISC RAPIDS    MOCLDY    65  64  97 W5        29.92R
CAMP DOUGLAS   NOT AVBL
$$

WIZ011>013-019>022-031-037>040-048>050-130400-
NORTHEAST WISCONSIN

CITY           SKY/WX    TMP DP  RH WIND       PRES   REMARKS
ANTIGO         CLOUDY    61  61  99 CALM      29.90S
STURGEON BAY   CLOUDY    64  61  88 S6        29.83F
GREEN BAY      LGT RAIN  68  63  84 S5        29.85F
MANITOWOC      LGT RAIN  68  63  84 N10       29.87R
APPLETON       MOCLDY    68  61  77 N7        29.88S
CLINTONVILLE   CLOUDY    64  63  94 CALM      29.84F
OSHKOSH        CLOUDY    69  65  86 NW3       29.88R
$$

WIZ032>034-041-042-053>061-130400-
SOUTHWEST WISCONSIN

CITY           SKY/WX    TMP DP  RH WIND       PRES   REMARKS
LA CROSSE      PTCLDY    66  64  93 NW6       29.94R
SPARTA         PTCLDY    63  62  97 CALM      29.95R FOG
VIROQUA        FAIR      63  63 100 W7        29.96R
BOSCOBEL       PTCLDY    66  64  93 CALM      29.92R
PRAIRIE DU CHI CLEAR     66  64  93 W5        29.93R
PLATTEVILLE    CLOUDY    67  65  93 N9        29.92S
$$

WIZ056-057-062-063-064-067-068-130400-
SOUTH CENTRAL WISCONSIN

CITY           SKY/WX    TMP DP  RH WIND       PRES   REMARKS
BARABOO/DELLS  CLOUDY    65  62  93 CALM      29.90S
LONE ROCK      CLOUDY    71  69  93 CALM      29.90R
WATERTOWN      LGT RAIN  71  69  95 N7        29.87R
MADISON        LGT RAIN  69  66  90 N9        29.89R
MIDDLETON      CLOUDY    69  68  98 N9        29.90R
MONROE         LGT RAIN  68  66  94 SW14      29.91R
JANESVILLE     RAIN      73  72  94 SW16G23   29.87R
$$

WIZ051-052-058>065-066-070>072-130400-
SOUTHEAST WISCONSIN

CITY           SKY/WX    TMP DP  RH WIND       PRES   REMARKS
MILWAUKEE      TSTM      69  67  93 VRB5      29.85F FOG
WAUKESHA       CLOUDY    66  64  94 CALM      29.86F
MILWAUKEE/TIMM CLOUDY    70  64  83 CALM      29.86S
RACINE         TSTM      67  66  97 N14       29.85R FOG
BURLINGTON     HVY RAIN  71  69  95 N15G30    29.87R
KENOSHA        TSTM      75  73  93 SE3       29.83R FOG
FOND DU LAC    CLOUDY    68  64  87 N3        29.89R
SHEBOYGAN      LGT RAIN  68  64  87 NW13      29.88R
WEST BEND      HVY RAIN  68  64  88 W6        29.89R
JUNEAU         DRIZZLE   67  51  55 N10G18    29.90R
$$

LSZ147-162-130400-
LAKE SUPERIOR

STATION/POSITION TIME  TEMP    WIND        PRES    WAVE
                       AIR SEA DIR/SP/G            HT/PER
                 (UTC) (F)     (DEG/KT/KT) (MB)    (FT/S)
W MID LAKE BUOY  0250   48 38  200/  6/  6 1009.5F   0
PORT WING        0240   68     210/  6/  8 1010.5F
SAXON HARBOR     0200             CALM     1010.8F
$$

LMZ867-665-643>646-130400-
LAKE MICHIGAN

STATION/POSITION TIME  TEMP    WIND        PRES    WAVE
                       AIR SEA DIR/SP/G            HT/PER
                 (UTC) (F)     (DEG/KT/KT) (MB)    (FT/S)
N MID LAKE BUOY  0250   59 58  230/ 10/ 12 1008.9F   1/ 3
NORTHPORT PIER   0220   68     290/  6/ 13 1010.2F
SISTER BAY       0125   67     360/ 16/ 19   N/A
ALGOMA LAKESHORE 0150          340/ 15/ 20   N/A
KEWAUNEE LAKESHO 0300   67     330/  2/  4 1011.7R
SHEBOYGAN LAKESH 0300   69     340/ 15/ 18 1011.3R
PORT WASHINGTON  0200   63      CALM  /  2 1011.2F
MILWAUKEE LAKESH 0300   67     160/  5/  6   N/A
S MID LAKE BUOY  0250   64 61  160/ 10/ 12 1010.0F   1/ 4
KENOSHA   LAKESH 0300   66     180/ 14/ 18   N/A
$$

TC  - TEMPERATURE IN CELSIUS
VSB - VISIBILITY IN STATUTE MILES
WCI - WIND CHILL INDEX
HX  - HEAT INDEX



USA.gov is the U.S. government's official web portal to all federal, state and local government web resources and services.